Regional Weather Roundup
Issued by NWS Sioux Falls, SD

Home | Current Version | Previous Version | Text Only | Print | Product List | Glossary Off
Versions: 1 2 3 4 5 6 7 8 9 10 11 12 13 14 15 16 17 18 19 20 21 22 23 24 25 26 27 28 29 30 31 32 33 34 35 36 37 38 39 40 41 42 43 44 45 46 47 48 49 50

000
ASUS43 KFSD 251010
RWRFSD

WEATHER ROUNDUP FOR SE SOUTH DAKOTA/SW MINNESOTA/NW IOWA
NATIONAL WEATHER SERVICE SIOUX FALLS SD
500 AM CDT MON MAY 25 2015

NOTE: "FAIR" INDICATES FEW OR NO CLOUDS BELOW 12,000 FEET WITH NO
SIGNIFICANT WEATHER AND OR OBSTRUCTIONS TO VISIBILITY.


SDZ038>040-050-052>070-251100-
SOUTHEAST SOUTH DAKOTA

CITY           SKY/WX    TMP DP  RH WIND       PRES   REMARKS
BROOKINGS      CLOUDY    57  55  94 NW6       29.74F
CHAMBERLAIN    CLOUDY    56  56  99 N5        29.74F FOG
HURON          CLOUDY    57  57 100 N6        29.74F FOG
MADISON        CLOUDY    55  55 100 N6        29.73F
MITCHELL       CLOUDY    58  58 100 NW5       29.74F FOG
SIOUX FALLS    CLOUDY    59  57  93 W5        29.72F
WINNER         FOG       59  57  93 CALM      29.76S VSB 1/4
YANKTON        CLOUDY    59  57  94 CALM      29.73R VSB 1
$$

MNZ071-072-080-081-089-090-097-098-251100-
SOUTHWEST MINNESOTA

CITY           SKY/WX    TMP DP  RH WIND       PRES   REMARKS
FAIRMONT       CLOUDY    61  55  82 SW10      29.69S
JACKSON        CLOUDY    59  59 100 W7        29.71S
LUVERNE        CLOUDY    59  55  88 NW3       29.72F FOG
MARSHALL       CLOUDY    57  54  88 NW7       29.70S
MONTEVIDEO     DRIZZLE   57  57 100 N3        29.71S
REDWOOD FALLS  FOG       58  57  97 W5        29.68S VSB 3/4
TRACY          FOG       58  57  99 W3        29.71S VSB 1
WINDOM         CLOUDY    57  57 100 W7        29.69F FOG
WORTHINGTON    CLOUDY    57  55  94 W10       29.72R
$$

IAZ001>003-012>014-020>022-031-032-NEZ013-014-SDZ071-251100-
NORTHWEST IOWA

CITY           SKY/WX    TMP DP  RH WIND       PRES   REMARKS
CHEROKEE       CLOUDY    59  59 100 SW6       29.73F FOG
DENISON        CLOUDY    63  63 100 SW5       29.73S
ESTHERVILLE    CLOUDY    60  59  96 W14       29.70S
LE MARS        CLOUDY    61  61 100 CALM      29.73F
ORANGE CITY    FOG       57  57 100 W6        29.72F VSB 3/4
SHELDON        FOG       59  59 100 W7        29.71F VSB 1/2
SIOUX CITY     CLOUDY    59  56  89 NW5       29.73F FOG
SPENCER        CLOUDY    61  60  97 W10       29.72S FOG
STORM LAKE     CLOUDY    61  61 100 SW8       29.74F FOG
$$

ABBREVIATIONS USED IN REMARKS
   TC - TEMPERATURE IN CELSIUS
  WCI - WIND CHILL INDEX
   HX - HEAT INDEX
  VSB - VISIBILITY



USA.gov is the U.S. government's official web portal to all federal, state and local government web resources and services.